User: anonymous   Login
Location: Unspecified
(0.0000°N, 0.0000°E)
Time: 10:48:44
(UTC+00:00)
Language:

Chunghua 1 - Orbit

View from above orbital plane
View from above orbital plane
View from above satellite
View from above satellite

Ground track
Ground track

The orbit data is extracted from the following two-line orbital elements,

1 25616U 99002A   18201.20824823  .00001339  00000-0  48788-4 0  9996
2 25616  34.9469 144.3809 0023595 142.1564 218.0815 15.27996476 70382
Epoch (UTC): 20 July 2018 04:59:52
Eccentricity: 0.0023595
inclination: 34.9469°
perigee height: 465 km
apogee height: 498 km
right ascension of ascending node: 144.3809°
argument of perigee: 142.1564°
revolutions per day: 15.27996476
mean anomaly at epoch: 218.0815°
orbit number at epoch: 7038

The dashed part of the orbit path shows where the satellite is in the earth's shadow,  

DLR